Flag for Canada Weather past 2 weeks in Fort Simpson, Northwest Territories, Canada

Now
59 °F

Broken clouds.


Feels Like: 58 °F
Forecast: 42 / 61 °F
Wind: 7 mph from Southeast

Location: Fort Simpson

Current Time: Sep 4, 2015 at 6:20:43 PM

Latest Report: Sep 4, 2015 at 5:00 PM


Visibility: 15 mi

Pressure: 30.06 "Hg

Humidity: 59%

Dew point: 45 °F

Location of Fort SimpsonLocation

Historic Weather in Fort Simpson — Graph

°F

Fort Simpson temperature yesterday

Maximum temperature yesterday: 48 °F (at 6:00 PM)
Minimum temperature yesterday: 41 °F (at 12:00 AM)
Average temperature yesterday: 43 °F

Past Weeks' High & Low Weather Summary

 TemperatureHumidityPressure
High72 °F (Aug 26, 3:00 PM)100% (Aug 22, 7:00 AM)30.21 "Hg (Aug 22, 7:00 AM)
Low30 °F (Aug 22, 7:00 AM)33% (Aug 26, 4:00 PM)29.04 "Hg (Aug 30, 6:00 PM)
Average50 °F78%29.78 "Hg
* Reported Aug 20 5:00 PM — Sep 4 5:00 PM, Fort Simpson, Weather by CustomWeather, © 2015

Note: Actual official high and low records may vary slightly from our data, if they occured in-between our weather recording intervals... More about our weather records

Advertising

Fort Simpson weather history for previous 24 hours

 ConditionsComfort  
Time TempWeatherWind HumidityBarometerVisibility
5:00 PM
Fri, Sep 4
59 °FBroken clouds.7 mph59%30.06 "Hg15 mi
4:00 PM59 °FBroken clouds.7 mph59%30.07 "Hg15 mi
3:00 PM57 °FPartly sunny.3 mph67%30.09 "Hg15 mi
2:00 PM55 °FPartly sunny.3 mph72%30.11 "Hg15 mi
1:00 PM54 °FPartly sunny.5 mph72%30.13 "Hg15 mi
12:00 PM50 °FPartly sunny.6 mph88%30.14 "Hg15 mi
11:00 AM48 °FPartly sunny.5 mph87%30.16 "Hg15 mi
10:00 AM46 °FPartly sunny.5 mph87%30.17 "Hg15 mi
9:00 AM45 °FPartly sunny.3 mph93%30.17 "Hg15 mi
8:00 AM43 °FPassing clouds.No wind100%30.17 "Hg15 mi
7:00 AM43 °FPassing clouds.2 mph93%30.18 "Hg15 mi
6:00 AM43 °FPassing clouds.No wind93%30.18 "Hg15 mi
5:00 AM41 °FPassing clouds.2 mph100%30.18 "Hg12 mi
4:00 AM41 °FPassing clouds.No wind93%30.18 "Hg15 mi
3:00 AM37 °FPassing clouds.No wind93%30.19 "Hg15 mi
2:00 AM39 °FPassing clouds.No wind93%30.19 "Hg15 mi
1:00 AM41 °FPassing clouds.No wind93%30.19 "Hg15 mi
12:00 AM43 °FPassing clouds.No wind100%30.20 "Hg15 mi
11:00 PM
Thu, Sep 3
41 °FPartly cloudy.No wind93%30.20 "Hg15 mi
10:00 PM43 °FPartly sunny.2 mph93%30.20 "Hg15 mi
9:00 PM46 °FScattered clouds.5 mph87%30.20 "Hg15 mi
8:00 PM48 °FBroken clouds.5 mph87%30.19 "Hg15 mi
7:00 PM48 °FBroken clouds.10 mph87%30.20 "Hg15 mi
6:00 PM48 °FBroken clouds.9 mph87%30.20 "Hg15 mi
Weather by CustomWeather, © 2015

See weather overviewHow to use our weather pages